Погода в Бенкулу

Индонезия     3°50′12″S   102°19′31″E
темп.,
°C
ветер,
м/с
пор.,
м/с
влажн.,
%
обл.,
%
осадки,
мм/ч
давл.,
гПа
погр.,
м
2 марта, вт
вт201:00+26св2286100 3.4 101272
04:00+25ссв2284100 0.0 1010100
07:00+25св228487 0.1 1011104
10:00+30юз116625 0.0 1012626
13:00+30юз347242 0.3 1010658
16:00+28зюз2384100 2.6 1008668
19:00+26юв0187100 9.3 1010154
22:00+25св2293100 9.1 101253
3 марта, ср
ср301:00+25св2290100 9.5 101289
04:00+24ссв2289100 0.1 1010105
07:00+24ссв228787 0.2 1011112
10:00+29зсз226478 0.0 1012556
13:00+30зюз446583 0.0 1010600
16:00+29з336844 0.1 1007637
19:00+27зсз127672 0.3 1010293
22:00+25ссв1286100 0.4 1012128
4 марта, чт
чт401:00+25ссв2388100 0.6 1012132
04:00+24св2387100 0.0 1011136
07:00+24всв2385100 0.0 1012103
10:00+28в127088 0.0 1012221
13:00+31юз446072 0.0 1010745
16:00+29ююз45712 0.1 1008608
19:00+27ююв348551 0.2 1010299
22:00+26в238947 0.0 1012226
5 марта, пт
пт501:00+24в129174 0.0 1012126
04:00+24всв228893 0.0 1010131
07:00+24всв128572 0.0 1012114
10:00+30ююв236555 0.0 1012603
13:00+30юз446749 0.0 1009568
16:00+29ююз457311 0.0 1007603
19:00+27ю348741 1.1 1010371
22:00+26вюв248897 0.4 1012382
6 марта, сб
сб601:00+24всв129299 0.4 1011110
04:00+23св119398 0.0 100979
07:00+24св229099 0.0 101187
10:00+29ююз116664 0.0 1012524
13:00+29зюз436653 0.1 1010552
16:00+29юз347188 0.9 1008719
19:00+26ююз238194 2.6 1010415
22:00+26юв1283100 2.4 1013394